Location: Stara Lesna
(49.1528°N, 20.2911°E)
Time: 11:15:06
(UTC+02:00)

Spot 4 Rocket - Pass Details

Date: 21 September 2019
Orbit: 776 x 782 km, 98.7° (Epoch: 17 October)

Event Time Altitude Azimuth Distance (km) Brightness Sun altitude
Rises 03:16:35 0° 17° (NNE) 3,273 8.1 -28.8°
Reaches altitude 10° 03:18:57 10° 21° (NNE) 2,340 7.2 -28.5°
Maximum altitude 03:24:04 62° 102° (ESE) 876 4.3 -27.8°
Enters shadow 03:24:27 60° 125° (SE) 892 4.3 -27.8°
